Midland Airpark, TX

8:18 AM CDT on July 25, 2017 (GMT -0500)
Midland

Weather History for KMDD - April, 2012

Change the Weather History Date:

Wednesday, April 18, 2012

  Actual Average (KMAF) Record (KMAF)
Temperature  
Mean Temperature 74 °F -  
Max Temperature 89 °F 77 °F 96 °F (1948)
Min Temperature 59 °F 49 °F 34 °F (1998)
Cooling Degree Days 9    
Growing Degree Days 24 (Base 50)    
Moisture  
Dew Point 40 °F    
Average Humidity 31    
Maximum Humidity 52    
Minimum Humidity 14    
Precipitation  
Precipitation 0.00 in - - ()
Sea Level Pressure  
Sea Level Pressure 30.04 in    
Wind  
Wind Speed 13 mph (SSE)    
Max Wind Speed 21 mph    
Max Gust Speed 26 mph    
Visibility 10 miles    
Events      
Averages and records for this station are not official NWS values.
T = Trace of Precipitation, MM = Missing Value Source: NWS Daily Summary

Daily Weather History Graph

Daily Weather History Graph

Search for Another Location

Airport or City:

Trip Planner

Search our weather history database for the weather conditions in past years. The results will help you decide how hot, cold, wet, or windy it might be!

Date:

Astronomy

Apr. 18, 2012 Rise Set
Actual Time 7:15 AM CDT 8:20 PM CDT
Civil Twilight 6:50 AM CDT 8:45 PM CDT
Nautical Twilight 6:20 AM CDT 9:15 PM CDT
Astronomical Twilight 5:49 AM CDT 9:46 PM CDT
Moon 5:34 AM CDT (4/18) 6:18 PM CDT (4/18)
Length of Visible Light 13h 55m
Length of Day
13h 04m
Waning Crescent, 6% of the Moon is Illuminated
Apr 18
Waning Crescent
Apr 21
New
Apr 29
First Quarter
May 5
Full
May 12
Last Quarter

Hourly Weather History & Observations

Time (CDT) Temp. Dew Point Humidity Pressure Visibility Wind Dir Wind Speed Gust Speed Precip Events Conditions
12:15 AM 67.3 °F 33.6 °F 29% 30.13 in 10.0 mi SSE 10.4 mph - N/A   Clear
12:35 AM 66.9 °F 34.2 °F 30% 30.13 in 10.0 mi SSE 9.2 mph - N/A   Clear
12:55 AM 66.7 °F 34.5 °F 30% 30.14 in 10.0 mi South 10.4 mph - N/A   Clear
1:15 AM 65.8 °F 34.7 °F 32% 30.14 in 10.0 mi SSE 10.4 mph - N/A   Clear
1:35 AM 65.3 °F 34.7 °F 32% 30.13 in 10.0 mi SSE 10.4 mph 17.3 mph N/A   Clear
1:55 AM 64.6 °F 34.9 °F 33% 30.12 in 10.0 mi SSE 8.1 mph - N/A   Clear
2:15 AM 63.1 °F 35.6 °F 36% 30.12 in 10.0 mi SSE 9.2 mph - N/A   Clear
2:35 AM 61.9 °F 36.9 °F 39% 30.12 in 10.0 mi SE 9.2 mph - N/A   Clear
2:55 AM 61.2 °F 37.2 °F 41% 30.12 in 10.0 mi SSE 6.9 mph - N/A   Clear
3:15 AM 61.2 °F 37.6 °F 42% 30.12 in 10.0 mi SE 8.1 mph - N/A   Clear
3:55 AM 60.3 °F 37.6 °F 43% 30.11 in 10.0 mi SE 9.2 mph - N/A   Clear
4:15 AM 60.3 °F 37.4 °F 43% 30.12 in 10.0 mi SE 11.5 mph - N/A   Clear
4:35 AM 60.4 °F 37.2 °F 42% 30.10 in 10.0 mi SSE 12.7 mph - N/A   Clear
4:55 AM 60.3 °F 37.2 °F 42% 30.11 in 10.0 mi SE 11.5 mph - N/A   Clear
6:15 AM 59.7 °F 37.8 °F 44% 30.12 in 10.0 mi SSE 12.7 mph 18.4 mph N/A   Clear
6:35 AM 59.7 °F 37.9 °F 44% 30.12 in 10.0 mi SSE 12.7 mph 18.4 mph N/A   Clear
6:55 AM 59.5 °F 38.5 °F 46% 30.12 in 10.0 mi SSE 10.4 mph - N/A   Clear
7:15 AM 59.2 °F 39.4 °F 48% 30.12 in 10.0 mi SSE 10.4 mph - N/A   Clear
7:35 AM 59.0 °F 40.1 °F 50% 30.13 in 10.0 mi SSE 9.2 mph - N/A   Clear
7:55 AM 59.0 °F 40.8 °F 51% 30.13 in 10.0 mi SSE 10.4 mph - N/A   Clear
8:15 AM 60.1 °F 42.1 °F 51% 30.13 in 10.0 mi South 11.5 mph - N/A   Clear
8:35 AM 61.3 °F 43.7 °F 52% 30.13 in 10.0 mi SSE 11.5 mph - N/A   Clear
8:55 AM 63.1 °F 45.3 °F 52% 30.13 in 10.0 mi South 18.4 mph 23.0 mph N/A   Clear
9:15 AM 64.8 °F 46.6 °F 52% 30.13 in 10.0 mi SSE 15.0 mph 24.2 mph N/A   Clear
9:35 AM 66.7 °F 47.5 °F 50% 30.12 in 10.0 mi South 20.7 mph 26.5 mph N/A   Clear
9:55 AM 68.5 °F 47.8 °F 48% 30.12 in 10.0 mi South 18.4 mph 26.5 mph N/A   Clear
10:15 AM 70.3 °F 47.7 °F 44% 30.13 in 10.0 mi South 18.4 mph 23.0 mph N/A   Clear
10:35 AM 72.1 °F 47.3 °F 41% 30.12 in 10.0 mi South 18.4 mph 26.5 mph N/A   Clear
10:55 AM 73.8 °F 46.6 °F 38% 30.12 in 10.0 mi South 19.6 mph 26.5 mph N/A   Clear
11:15 AM 75.0 °F 45.9 °F 35% 30.12 in 10.0 mi South 16.1 mph 26.5 mph N/A   Clear
11:35 AM 76.1 °F 45.7 °F 34% 30.12 in 10.0 mi SSW 18.4 mph - N/A   Clear
11:55 AM 77.4 °F 45.3 °F 32% 30.10 in 10.0 mi South 18.4 mph 25.3 mph N/A   Clear
12:15 PM 78.8 °F 45.1 °F 30% 30.10 in 10.0 mi South 17.3 mph 23.0 mph N/A   Clear
12:35 PM 80.2 °F 45.3 °F 29% 30.09 in 10.0 mi SSW 17.3 mph 21.9 mph N/A   Clear
12:55 PM 81.1 °F 45.3 °F 28% 30.08 in 10.0 mi South 16.1 mph 25.3 mph N/A   Clear
1:15 PM 82.9 °F 44.8 °F 26% 30.07 in 10.0 mi South 12.7 mph 25.3 mph N/A   Clear
1:35 PM 84.6 °F 42.8 °F 23% 30.06 in 10.0 mi South 18.4 mph 24.2 mph N/A   Clear
1:55 PM 85.3 °F 42.3 °F 22% 30.05 in 10.0 mi South 11.5 mph 24.2 mph N/A   Clear
2:15 PM 86.4 °F 41.5 °F 21% 30.04 in 10.0 mi South 19.6 mph 24.2 mph N/A   Clear
2:35 PM 87.3 °F 39.9 °F 19% 30.03 in 10.0 mi South 16.1 mph 23.0 mph N/A   Clear
2:55 PM 87.6 °F 38.1 °F 17% 30.02 in 10.0 mi South 13.8 mph 23.0 mph N/A   Clear
3:15 PM 88.3 °F 36.5 °F 16% 30.01 in 10.0 mi SSW 11.5 mph 18.4 mph N/A   Clear
3:35 PM 88.7 °F 35.6 °F 15% 30.00 in 10.0 mi South 13.8 mph 21.9 mph N/A   Clear
3:55 PM 89.2 °F 35.2 °F 15% 29.99 in 10.0 mi SSW 12.7 mph - N/A   Clear
4:15 PM 89.2 °F 33.6 °F 14% 29.97 in 10.0 mi South 12.7 mph 17.3 mph N/A   Clear
4:35 PM 89.4 °F 33.8 °F 14% 29.96 in 10.0 mi South 18.4 mph - N/A   Clear
4:55 PM 89.8 °F 34.0 °F 14% 29.95 in 10.0 mi South 11.5 mph 24.2 mph N/A   Clear
5:35 PM 89.4 °F 34.5 °F 14% 29.94 in 10.0 mi SSE 20.7 mph 24.2 mph N/A   Clear
5:55 PM 88.9 °F 34.3 °F 14% 29.93 in 10.0 mi SSE 20.7 mph 26.5 mph N/A   Clear
6:15 PM 88.2 °F 35.1 °F 15% 29.93 in 10.0 mi South 17.3 mph 26.5 mph N/A   Clear
6:35 PM 87.6 °F 37.6 °F 17% 29.93 in 10.0 mi South 17.3 mph 23.0 mph N/A   Clear
6:55 PM 86.7 °F 36.9 °F 17% 29.92 in 10.0 mi SSE 18.4 mph - N/A   Clear
7:15 PM 85.8 °F 36.1 °F 17% 29.92 in 10.0 mi South 16.1 mph 25.3 mph N/A   Clear
7:35 PM 84.6 °F 34.5 °F 17% 29.91 in 10.0 mi South 19.6 mph 24.2 mph N/A   Clear
7:55 PM 83.5 °F 37.0 °F 19% 29.91 in 10.0 mi South 16.1 mph 25.3 mph N/A   Clear
8:15 PM 82.0 °F 39.4 °F 22% 29.91 in 10.0 mi SSE 15.0 mph - N/A   Clear
8:35 PM 80.8 °F 39.0 °F 22% 29.91 in 10.0 mi SSE 16.1 mph - N/A   Clear
8:55 PM 79.7 °F 39.0 °F 23% 29.92 in 10.0 mi SSE 16.1 mph - N/A   Clear
9:15 PM 78.6 °F 39.9 °F 25% 29.92 in 10.0 mi SSE 12.7 mph - N/A   Clear
9:35 PM 77.7 °F 40.3 °F 26% 29.92 in 10.0 mi SSE 15.0 mph - N/A   Clear
9:55 PM 76.8 °F 41.0 °F 28% 29.93 in 10.0 mi SSE 13.8 mph 20.7 mph N/A   Clear
10:15 PM 75.7 °F 42.1 °F 30% 29.93 in 10.0 mi SSE 13.8 mph - N/A   Clear
10:35 PM 74.8 °F 42.4 °F 31% 29.93 in 10.0 mi SSE 12.7 mph 18.4 mph N/A   Clear
10:55 PM 73.9 °F 42.3 °F 32% 29.93 in 10.0 mi SSE 11.5 mph 19.6 mph N/A   Clear
11:15 PM 73.0 °F 42.6 °F 33% 29.93 in 10.0 mi SSE 12.7 mph - N/A   Clear
11:35 PM 72.3 °F 42.8 °F 35% 29.93 in 10.0 mi SSE 15.0 mph - N/A   Clear
11:55 PM 72.0 °F 42.8 °F 35% 29.93 in 10.0 mi SSE 13.8 mph 19.6 mph N/A   Clear